KQA8602 HKJK-HKMO

Flight info

Callsign KQA8602
Flight time 0h 44m
Altitude 29000
Route ATUDU1D UVOVA UQ135 NEREV NEREV3A
Aircraft B738/M-SDE2E3FGHIRWXY/LB1

Departure

Time 2026-04-26 08:19
Airport Jomo Kenyatta International Airport (HKJK)

Arrival

Time 2026-04-26 09:03
Airport Moi International Airport (HKMO)
Time Latitude Longitude Altitude Speed Heading
2026-04-26 07:26 -1.33007 36.92314 5323 ft 0 kts 103°
2026-04-26 08:03 -1.33005 36.92306 5329 ft 1 kts 103°
2026-04-26 08:03 -1.33000 36.92286 5328 ft 2 kts 103°
2026-04-26 08:03 -1.32995 36.92267 5321 ft 2 kts 104°
2026-04-26 08:04 -1.32992 36.92251 5325 ft 2 kts 94°
2026-04-26 08:04 -1.32994 36.92233 5328 ft 2 kts 58°
2026-04-26 08:04 -1.33007 36.92221 5320 ft 2 kts 20°
2026-04-26 08:04 -1.33026 36.92216 5323 ft 2 kts
2026-04-26 08:05 -1.33033 36.92215 5323 ft 0 kts 10°
2026-04-26 08:12 -1.33031 36.92215 5331 ft 1 kts 10°
2026-04-26 08:12 -1.33005 36.92220 5326 ft 6 kts 13°
2026-04-26 08:13 -1.32953 36.92234 5327 ft 9 kts 18°
2026-04-26 08:13 -1.32887 36.92254 5332 ft 10 kts 356°
2026-04-26 08:13 -1.32825 36.92220 5332 ft 10 kts 325°
2026-04-26 08:13 -1.32797 36.92163 5330 ft 10 kts 257°
2026-04-26 08:14 -1.32829 36.92105 5334 ft 10 kts 235°
2026-04-26 08:14 -1.32866 36.92050 5329 ft 9 kts 236°
2026-04-26 08:14 -1.32903 36.91998 5328 ft 9 kts 236°
2026-04-26 08:14 -1.32939 36.91947 5341 ft 9 kts 233°
2026-04-26 08:15 -1.32974 36.91899 5339 ft 9 kts 235°
2026-04-26 08:15 -1.33000 36.91847 5341 ft 8 kts 266°
2026-04-26 08:15 -1.32974 36.91798 5344 ft 8 kts 324°
2026-04-26 08:15 -1.32927 36.91769 5346 ft 8 kts 326°
2026-04-26 08:16 -1.32881 36.91737 5346 ft 8 kts 324°
2026-04-26 08:16 -1.32834 36.91703 5342 ft 8 kts 324°
2026-04-26 08:16 -1.32786 36.91671 5343 ft 8 kts 336°
2026-04-26 08:16 -1.32733 36.91677 5344 ft 8 kts 26°
2026-04-26 08:17 -1.32713 36.91697 5343 ft 0 kts 53°
2026-04-26 08:18 -1.32637 36.91803 5343 ft 52 kts 54°
2026-04-26 08:19 -1.32279 36.92290 5330 ft 119 kts 54°
2026-04-26 08:19 -1.31686 36.93106 5326 ft 173 kts 56°
2026-04-26 08:19 -1.30908 36.94186 5519 ft 206 kts 54°
2026-04-26 08:19 -1.30076 36.95389 6297 ft 207 kts 68°
2026-04-26 08:20 -1.29865 36.96763 7165 ft 198 kts 89°
2026-04-26 08:20 -1.29776 36.98170 7558 ft 216 kts 86°
2026-04-26 08:20 -1.29633 36.99772 7616 ft 246 kts 85°
2026-04-26 08:20 -1.29453 37.01555 7806 ft 269 kts 85°
2026-04-26 08:21 -1.29247 37.03469 8188 ft 283 kts 85°
2026-04-26 08:21 -1.29103 37.05447 8814 ft 287 kts 98°
2026-04-26 08:21 -1.29806 37.07266 9517 ft 285 kts 128°
2026-04-26 08:21 -1.31076 37.08799 10214 ft 289 kts 130°
2026-04-26 08:22 -1.32415 37.10363 10402 ft 311 kts 130°
2026-04-26 08:22 -1.33858 37.12046 10628 ft 328 kts 130°
2026-04-26 08:22 -1.35355 37.13803 11132 ft 334 kts 130°
2026-04-26 08:22 -1.36865 37.15587 11771 ft 336 kts 129°
2026-04-26 08:23 -1.38375 37.17382 12371 ft 340 kts 129°
2026-04-26 08:23 -1.39902 37.19204 12973 ft 344 kts 129°
2026-04-26 08:23 -1.41444 37.21049 13557 ft 348 kts 129°
2026-04-26 08:23 -1.43011 37.22924 14113 ft 352 kts 129°
2026-04-26 08:24 -1.44580 37.24806 14637 ft 355 kts 129°
2026-04-26 08:24 -1.46163 37.26703 15165 ft 357 kts 129°
2026-04-26 08:24 -1.47742 37.28598 15678 ft 360 kts 129°
2026-04-26 08:24 -1.49353 37.30531 16205 ft 364 kts 128°
2026-04-26 08:25 -1.50982 37.32486 16725 ft 367 kts 128°
2026-04-26 08:25 -1.52607 37.34437 17233 ft 370 kts 128°
2026-04-26 08:25 -1.54267 37.36429 17742 ft 373 kts 128°
2026-04-26 08:25 -1.55949 37.38448 18247 ft 376 kts 128°
2026-04-26 08:26 -1.57611 37.40442 18692 ft 379 kts 128°
2026-04-26 08:26 -1.59297 37.42466 19076 ft 382 kts 128°
2026-04-26 08:26 -1.60996 37.44505 19104 ft 379 kts 128°
2026-04-26 08:26 -1.62664 37.46506 19119 ft 382 kts 128°
2026-04-26 08:27 -1.64370 37.48554 19125 ft 383 kts 128°
2026-04-26 08:27 -1.66071 37.50596 19134 ft 384 kts 128°
2026-04-26 08:27 -1.67781 37.52649 19405 ft 389 kts 128°
2026-04-26 08:27 -1.69514 37.54729 19967 ft 387 kts 128°
2026-04-26 08:28 -1.71235 37.56796 20412 ft 388 kts 128°
2026-04-26 08:28 -1.72926 37.58826 20821 ft 391 kts 128°
2026-04-26 08:28 -1.74717 37.60977 21211 ft 393 kts 128°
2026-04-26 08:28 -1.76457 37.63065 21596 ft 396 kts 128°
2026-04-26 08:29 -1.78263 37.65148 21982 ft 399 kts 131°
2026-04-26 08:29 -1.80185 37.67141 22373 ft 401 kts 133°
2026-04-26 08:29 -1.82167 37.69103 22748 ft 404 kts 134°
2026-04-26 08:29 -1.84192 37.71080 23109 ft 406 kts 134°
2026-04-26 08:30 -1.86221 37.73061 23472 ft 409 kts 134°
2026-04-26 08:30 -1.88259 37.75060 23800 ft 411 kts 133°
2026-04-26 08:30 -1.90296 37.77072 24089 ft 413 kts 133°
2026-04-26 08:30 -1.92340 37.79099 24400 ft 415 kts 133°
2026-04-26 08:31 -1.94388 37.81136 24701 ft 416 kts 133°
2026-04-26 08:31 -1.96439 37.83179 24993 ft 418 kts 133°
2026-04-26 08:31 -1.98496 37.85230 25279 ft 420 kts 133°
2026-04-26 08:31 -2.00548 37.87277 25560 ft 422 kts 133°
2026-04-26 08:32 -2.02629 37.89353 25861 ft 423 kts 133°
2026-04-26 08:32 -2.04716 37.91435 26237 ft 422 kts 133°
2026-04-26 08:32 -2.06781 37.93496 26660 ft 420 kts 133°
2026-04-26 08:32 -2.08851 37.95560 27085 ft 419 kts 133°
2026-04-26 08:33 -2.10899 37.97603 27446 ft 418 kts 133°
2026-04-26 08:33 -2.12966 37.99666 27806 ft 418 kts 133°
2026-04-26 08:33 -2.15024 38.01719 28192 ft 417 kts 133°
2026-04-26 08:33 -2.17066 38.03754 28553 ft 417 kts 133°
2026-04-26 08:34 -2.19095 38.05779 28960 ft 416 kts 133°
2026-04-26 08:34 -2.21156 38.07837 29025 ft 421 kts 133°
2026-04-26 08:34 -2.25308 38.11982 29035 ft 418 kts 133°
2026-04-26 08:35 -2.29387 38.16053 29043 ft 415 kts 133°
2026-04-26 08:35 -2.33463 38.20122 29044 ft 417 kts 133°
2026-04-26 08:36 -2.37579 38.24231 29041 ft 419 kts 133°
2026-04-26 08:36 -2.41706 38.28351 29031 ft 420 kts 133°
2026-04-26 08:37 -2.45837 38.32475 29029 ft 419 kts 133°
2026-04-26 08:37 -2.49964 38.36596 29018 ft 418 kts 133°
2026-04-26 08:38 -2.53992 38.40615 29005 ft 400 kts 133°
2026-04-26 08:38 -2.57874 38.44491 28795 ft 396 kts 133°
2026-04-26 08:39 -2.59822 38.46438 28527 ft 393 kts 133°
2026-04-26 08:39 -2.61741 38.48355 28269 ft 389 kts 133°
2026-04-26 08:39 -2.63654 38.50266 28018 ft 387 kts 133°
2026-04-26 08:39 -2.65548 38.52158 27774 ft 384 kts 133°
2026-04-26 08:40 -2.67435 38.54043 27461 ft 380 kts 133°
2026-04-26 08:40 -2.69300 38.55906 27092 ft 378 kts 133°
2026-04-26 08:40 -2.71128 38.57732 26736 ft 376 kts 133°
2026-04-26 08:40 -2.72980 38.59582 26373 ft 374 kts 133°
2026-04-26 08:41 -2.74807 38.61408 26004 ft 372 kts 133°
2026-04-26 08:41 -2.76632 38.63232 25638 ft 371 kts 133°
2026-04-26 08:41 -2.78457 38.65056 25248 ft 370 kts 133°
2026-04-26 08:41 -2.80278 38.66876 24887 ft 369 kts 133°
2026-04-26 08:42 -2.82091 38.68687 24520 ft 369 kts 133°
2026-04-26 08:42 -2.83909 38.70504 24139 ft 368 kts 133°
2026-04-26 08:42 -2.85691 38.72286 23772 ft 368 kts 132°
2026-04-26 08:42 -2.87489 38.74082 23369 ft 367 kts 132°
2026-04-26 08:43 -2.89305 38.75897 22972 ft 366 kts 132°
2026-04-26 08:43 -2.91098 38.77690 22581 ft 364 kts 132°
2026-04-26 08:43 -2.92879 38.79470 22212 ft 361 kts 132°
2026-04-26 08:43 -2.94661 38.81252 21856 ft 359 kts 132°
2026-04-26 08:44 -2.96412 38.83001 21497 ft 357 kts 132°
2026-04-26 08:44 -2.98164 38.84753 21143 ft 355 kts 132°
2026-04-26 08:44 -2.99908 38.86496 20784 ft 353 kts 132°
2026-04-26 08:44 -3.01622 38.88211 20443 ft 351 kts 132°
2026-04-26 08:45 -3.03337 38.89926 20093 ft 350 kts 132°
2026-04-26 08:45 -3.05059 38.91647 19753 ft 348 kts 132°
2026-04-26 08:45 -3.06775 38.93364 19392 ft 347 kts 132°
2026-04-26 08:45 -3.08475 38.95064 19040 ft 346 kts 132°
2026-04-26 08:46 -3.10177 38.96766 18682 ft 346 kts 132°
2026-04-26 08:46 -3.11880 38.98470 18335 ft 345 kts 132°
2026-04-26 08:46 -3.13571 39.00162 17948 ft 344 kts 133°
2026-04-26 08:46 -3.15259 39.01852 17572 ft 342 kts 133°
2026-04-26 08:47 -3.16913 39.03506 17220 ft 340 kts 133°
2026-04-26 08:47 -3.18580 39.05173 16870 ft 338 kts 133°
2026-04-26 08:47 -3.20248 39.06843 16517 ft 337 kts 133°
2026-04-26 08:47 -3.21901 39.08497 16181 ft 334 kts 133°
2026-04-26 08:48 -3.23542 39.10139 15838 ft 333 kts 134°
2026-04-26 08:48 -3.25174 39.11762 15500 ft 331 kts 135°
2026-04-26 08:48 -3.26811 39.13344 15167 ft 330 kts 135°
2026-04-26 08:48 -3.28488 39.14945 14813 ft 329 kts 136°
2026-04-26 08:49 -3.30120 39.16501 14480 ft 328 kts 136°
2026-04-26 08:49 -3.31770 39.18074 14139 ft 328 kts 136°
2026-04-26 08:49 -3.33406 39.19637 13798 ft 327 kts 136°
2026-04-26 08:49 -3.35051 39.21209 13419 ft 327 kts 136°
2026-04-26 08:50 -3.36696 39.22783 13068 ft 325 kts 136°
2026-04-26 08:50 -3.38331 39.24349 12727 ft 323 kts 136°
2026-04-26 08:50 -3.39940 39.25890 12394 ft 321 kts 136°
2026-04-26 08:50 -3.41552 39.27435 12071 ft 318 kts 136°
2026-04-26 08:51 -3.44724 39.30476 11420 ft 314 kts 136°
2026-04-26 08:51 -3.46283 39.31972 11090 ft 312 kts 137°
2026-04-26 08:51 -3.47837 39.33461 10774 ft 310 kts 136°
2026-04-26 08:52 -3.49394 39.34953 10450 ft 308 kts 136°
2026-04-26 08:52 -3.50930 39.36426 10178 ft 304 kts 136°
2026-04-26 08:52 -3.52428 39.37862 10053 ft 296 kts 136°
2026-04-26 08:52 -3.53904 39.39276 9908 ft 288 kts 136°
2026-04-26 08:53 -3.55297 39.40613 9882 ft 273 kts 136°
2026-04-26 08:53 -3.56701 39.41960 9312 ft 277 kts 137°
2026-04-26 08:53 -3.58083 39.43286 8944 ft 274 kts 137°
2026-04-26 08:53 -3.59434 39.44583 8660 ft 269 kts 137°
2026-04-26 08:54 -3.60763 39.45857 8381 ft 263 kts 137°
2026-04-26 08:54 -3.62073 39.47114 8109 ft 257 kts 137°
2026-04-26 08:54 -3.63320 39.48311 7849 ft 252 kts 137°
2026-04-26 08:54 -3.64591 39.49530 7597 ft 246 kts 138°
2026-04-26 08:55 -3.65818 39.50708 7340 ft 241 kts 138°
2026-04-26 08:55 -3.67005 39.51846 7106 ft 239 kts 138°
2026-04-26 08:55 -3.68202 39.52995 6870 ft 240 kts 138°
2026-04-26 08:55 -3.69418 39.54160 6656 ft 244 kts 138°
2026-04-26 08:56 -3.70662 39.55353 6342 ft 254 kts 139°
2026-04-26 08:56 -3.71531 39.56187 6160 ft 254 kts 139°
2026-04-26 08:56 -3.73189 39.57779 6021 ft 247 kts 139°
2026-04-26 08:56 -3.74420 39.58960 5892 ft 245 kts 139°
2026-04-26 08:57 -3.75628 39.60120 5743 ft 237 kts 139°
2026-04-26 08:57 -3.76794 39.61241 5667 ft 223 kts 139°
2026-04-26 08:57 -3.77872 39.62300 5464 ft 218 kts 133°
2026-04-26 08:57 -3.78677 39.63588 5246 ft 219 kts 122°
2026-04-26 08:58 -3.79400 39.64921 5027 ft 221 kts 122°
2026-04-26 08:58 -3.80156 39.66278 4784 ft 223 kts 123°
2026-04-26 08:58 -3.80913 39.67627 4527 ft 223 kts 123°
2026-04-26 08:58 -3.81690 39.68950 4308 ft 220 kts 132°
2026-04-26 08:59 -3.82919 39.69821 4049 ft 219 kts 165°
2026-04-26 08:59 -3.84442 39.69900 3780 ft 224 kts 191°
2026-04-26 08:59 -3.85890 39.69327 3519 ft 231 kts 207°
2026-04-26 08:59 -3.87294 39.68550 3254 ft 233 kts 208°
2026-04-26 09:00 -3.88685 39.67758 2942 ft 230 kts 207°
2026-04-26 09:00 -3.90069 39.66975 2641 ft 223 kts 209°
2026-04-26 09:00 -3.91390 39.66229 2339 ft 216 kts 207°
2026-04-26 09:00 -3.92658 39.65516 2077 ft 199 kts 208°
2026-04-26 09:01 -3.93819 39.64859 1823 ft 185 kts 206°
2026-04-26 09:01 -3.94896 39.64255 1589 ft 174 kts 207°
2026-04-26 09:01 -3.95920 39.63679 1378 ft 164 kts 207°
2026-04-26 09:01 -3.96892 39.63132 1174 ft 156 kts 209°
2026-04-26 09:02 -3.97834 39.62602 1026 ft 158 kts 209°
2026-04-26 09:02 -3.98808 39.62052 800 ft 162 kts 207°
2026-04-26 09:02 -3.99768 39.61512 530 ft 157 kts 206°
2026-04-26 09:02 -4.00699 39.60981 260 ft 148 kts 211°
2026-04-26 09:03 -4.01539 39.60469 220 ft 138 kts 207°
2026-04-26 09:03 -4.02308 39.60084 215 ft 105 kts 208°
2026-04-26 09:03 -4.02783 39.59819 215 ft 61 kts 210°
2026-04-26 09:03 -4.03089 39.59651 204 ft 44 kts 210°
2026-04-26 09:04 -4.03307 39.59547 199 ft 18 kts 169°
2026-04-26 09:04 -4.03324 39.59573 205 ft 4 kts 94°
2026-04-26 09:04 -4.03326 39.59597 202 ft 3 kts 93°
2026-04-26 09:04 -4.03327 39.59617 199 ft 3 kts 93°
2026-04-26 09:05 -4.03328 39.59637 204 ft 3 kts 91°
2026-04-26 09:05 -4.03328 39.59657 205 ft 3 kts 91°
2026-04-26 09:05 -4.03328 39.59676 208 ft 3 kts 88°
2026-04-26 09:05 -4.03327 39.59695 200 ft 3 kts 88°
2026-04-26 09:06 -4.03326 39.59719 203 ft 4 kts 88°
2026-04-26 09:06 -4.03325 39.59752 210 ft 6 kts 88°
2026-04-26 09:06 -4.03324 39.59795 205 ft 7 kts 88°
2026-04-26 09:06 -4.03322 39.59848 210 ft 8 kts 88°
2026-04-26 09:07 -4.03320 39.59910 201 ft 10 kts 88°
2026-04-26 09:07 -4.03331 39.59960 211 ft 0 kts 128°